Time,TemperatureF,DewpointF,PressureIn,WindDirection,WindDirectionDegrees,WindSpeedMPH,WindSpeedGustMPH,Humidity,HourlyPrecipIn,Conditions,Clouds,dailyrainin,SoftwareType,DateUTC
2013-05-16 00:02:00,76.2,35.7,29.64,WSW,238,9.0,12.0,23,0.00,,,0.00,Wunderground v.1.15,2013-05-16 07:02:00,
2013-05-16 00:08:00,76.1,34.5,29.64,WSW,240,10.0,13.0,22,0.00,,,0.00,Wunderground v.1.15,2013-05-16 07:08:00,
2013-05-16 00:14:00,76.1,35.6,29.64,SW,223,11.0,22.0,23,0.00,,,0.00,Wunderground v.1.15,2013-05-16 07:14:00,
2013-05-16 00:20:00,76.2,34.6,29.65,West,263,14.0,14.0,22,0.00,,,0.00,Wunderground v.1.15,2013-05-16 07:20:00,
2013-05-16 00:26:00,76.0,34.4,29.65,SW,223,13.0,16.0,22,0.00,,,0.00,Wunderground v.1.15,2013-05-16 07:26:00,
2013-05-16 00:32:00,76.0,34.4,29.65,SW,232,15.0,15.0,22,0.00,,,0.00,Wunderground v.1.15,2013-05-16 07:32:00,
2013-05-16 00:38:00,76.0,33.2,29.64,SW,234,13.0,17.0,21,0.00,,,0.00,Wunderground v.1.15,2013-05-16 07:38:00,
2013-05-16 00:44:00,75.8,33.1,29.64,SSW,213,13.0,16.0,21,0.00,,,0.00,Wunderground v.1.15,2013-05-16 07:44:00,
2013-05-16 00:50:00,75.7,33.0,29.64,West,269,13.0,13.0,21,0.00,,,0.00,Wunderground v.1.15,2013-05-16 07:50:00,
2013-05-16 00:56:00,75.6,32.9,29.64,West,281,11.0,15.0,21,0.00,,,0.00,Wunderground v.1.15,2013-05-16 07:56:00,
2013-05-16 01:02:00,75.6,31.7,29.65,WSW,248,7.0,10.0,20,0.00,,,0.00,Wunderground v.1.15,2013-05-16 08:02:00,
2013-05-16 01:08:00,75.5,31.6,29.65,West,265,5.0,10.0,20,0.00,,,0.00,Wunderground v.1.15,2013-05-16 08:08:00,
2013-05-16 01:14:00,75.3,31.4,29.64,SW,236,7.0,15.0,20,0.00,,,0.00,Wunderground v.1.15,2013-05-16 08:14:00,
2013-05-16 01:20:00,75.5,31.6,29.64,West,276,9.0,12.0,20,0.00,,,0.00,Wunderground v.1.15,2013-05-16 08:20:00,
2013-05-16 01:26:00,75.5,32.8,29.64,WSW,237,10.0,12.0,21,0.00,,,0.00,Wunderground v.1.15,2013-05-16 08:26:00,
2013-05-16 01:32:00,75.5,31.6,29.64,SW,228,14.0,19.0,20,0.00,,,0.00,Wunderground v.1.15,2013-05-16 08:32:00,
2013-05-16 01:38:00,75.5,32.8,29.64,SSW,213,15.0,19.0,21,0.00,,,0.00,Wunderground v.1.15,2013-05-16 08:38:00,
2013-05-16 01:44:00,75.4,31.5,29.64,SSW,211,13.0,18.0,20,0.00,,,0.00,Wunderground v.1.15,2013-05-16 08:44:00,
2013-05-16 01:50:00,75.3,30.2,29.63,WSW,247,14.0,14.0,19,0.00,,,0.00,Wunderground v.1.15,2013-05-16 08:50:00,
2013-05-16 01:56:00,75.1,30.0,29.63,SW,232,11.0,14.0,19,0.00,,,0.00,Wunderground v.1.15,2013-05-16 08:56:00,
2013-05-16 02:02:00,74.8,29.8,29.64,SW,233,8.0,14.0,19,0.00,,,0.00,Wunderground v.1.15,2013-05-16 09:02:00,
2013-05-16 02:08:00,74.7,30.9,29.64,West,261,11.0,14.0,20,0.00,,,0.00,Wunderground v.1.15,2013-05-16 09:08:00,
2013-05-16 02:14:00,74.8,31.0,29.64,SSW,211,11.0,15.0,20,0.00,,,0.00,Wunderground v.1.15,2013-05-16 09:14:00,
2013-05-16 02:20:00,74.9,31.1,29.64,SW,226,12.0,20.0,20,0.00,,,0.00,Wunderground v.1.15,2013-05-16 09:20:00,
2013-05-16 02:26:00,74.9,31.1,29.64,SW,226,12.0,20.0,20,0.00,,,0.00,Wunderground v.1.15,2013-05-16 09:26:00,
2013-05-16 02:32:00,74.7,30.9,29.64,SW,232,10.0,15.0,20,0.00,,,0.00,Wunderground v.1.15,2013-05-16 09:32:00,
2013-05-16 02:38:00,74.6,32.1,29.63,SSW,211,11.0,15.0,21,0.00,,,0.00,Wunderground v.1.15,2013-05-16 09:38:00,
2013-05-16 02:44:00,74.3,31.8,29.63,SW,236,11.0,11.0,21,0.00,,,0.00,Wunderground v.1.15,2013-05-16 09:44:00,
2013-05-16 02:50:00,74.0,31.6,29.62,SW,219,9.0,9.0,21,0.00,,,0.00,Wunderground v.1.15,2013-05-16 09:50:00,
2013-05-16 02:56:00,73.7,30.1,29.63,SW,218,8.0,9.0,20,0.00,,,0.00,Wunderground v.1.15,2013-05-16 09:56:00,
2013-05-16 03:02:00,73.4,29.9,29.63,WSW,246,9.0,11.0,20,0.00,,,0.00,Wunderground v.1.15,2013-05-16 10:02:00,
2013-05-16 03:08:00,73.3,29.8,29.63,SW,230,9.0,13.0,20,0.00,,,0.00,Wunderground v.1.15,2013-05-16 10:08:00,
2013-05-16 03:14:00,73.5,31.1,29.63,SSW,202,10.0,16.0,21,0.00,,,0.00,Wunderground v.1.15,2013-05-16 10:14:00,
2013-05-16 03:20:00,73.5,31.1,29.63,SW,233,10.0,11.0,21,0.00,,,0.00,Wunderground v.1.15,2013-05-16 10:20:00,
2013-05-16 03:26:00,73.6,31.2,29.63,SSW,213,10.0,14.0,21,0.00,,,0.00,Wunderground v.1.15,2013-05-16 10:26:00,
2013-05-16 03:32:00,73.6,32.4,29.63,SW,219,12.0,20.0,22,0.00,,,0.00,Wunderground v.1.15,2013-05-16 10:32:00,
2013-05-16 03:38:00,73.7,32.5,29.62,SW,215,15.0,20.0,22,0.00,,,0.00,Wunderground v.1.15,2013-05-16 10:38:00,
2013-05-16 03:44:00,73.4,33.3,29.63,SW,221,13.0,15.0,23,0.00,,,0.00,Wunderground v.1.15,2013-05-16 10:44:00,
2013-05-16 03:50:00,73.3,33.2,29.62,SSW,193,16.0,18.0,23,0.00,,,0.00,Wunderground v.1.15,2013-05-16 10:50:00,
2013-05-16 03:56:00,73.4,32.2,29.62,SSW,200,18.0,22.0,22,0.00,,,0.00,Wunderground v.1.15,2013-05-16 10:56:00,
2013-05-16 04:02:00,73.4,33.3,29.62,SSW,200,16.0,22.0,23,0.00,,,0.00,Wunderground v.1.15,2013-05-16 11:02:00,
2013-05-16 04:08:00,73.4,32.2,29.62,SW,215,16.0,22.0,22,0.00,,,0.00,Wunderground v.1.15,2013-05-16 11:08:00,
2013-05-16 04:14:00,73.3,31.0,29.62,SW,228,12.0,16.0,21,0.00,,,0.00,Wunderground v.1.15,2013-05-16 11:14:00,
2013-05-16 04:20:00,73.3,31.0,29.63,SW,235,9.0,9.0,21,0.00,,,0.00,Wunderground v.1.15,2013-05-16 11:20:00,
2013-05-16 04:26:00,73.1,32.0,29.62,SSW,199,11.0,18.0,22,0.00,,,0.00,Wunderground v.1.15,2013-05-16 11:26:00,
2013-05-16 04:32:00,73.1,32.0,29.62,SW,219,14.0,20.0,22,0.00,,,0.00,Wunderground v.1.15,2013-05-16 11:32:00,
2013-05-16 04:38:00,73.0,31.9,29.62,SW,217,15.0,20.0,22,0.00,,,0.00,Wunderground v.1.15,2013-05-16 11:38:00,
2013-05-16 04:44:00,72.9,32.9,29.62,SSW,198,14.0,15.0,23,0.00,,,0.00,Wunderground v.1.15,2013-05-16 11:44:00,
2013-05-16 04:50:00,72.9,32.9,29.62,SSW,207,15.0,20.0,23,0.00,,,0.00,Wunderground v.1.15,2013-05-16 11:50:00,
2013-05-16 04:56:00,73.1,33.1,29.61,South,188,20.0,23.0,23,0.00,,,0.00,Wunderground v.1.15,2013-05-16 11:56:00,
2013-05-16 05:02:00,72.9,35.0,29.61,SW,215,23.0,26.0,25,0.00,,,0.00,Wunderground v.1.15,2013-05-16 12:02:00,
2013-05-16 05:08:00,72.5,33.6,29.62,SSW,194,22.0,27.0,24,0.00,,,0.00,Wunderground v.1.15,2013-05-16 12:08:00,
2013-05-16 05:14:00,72.4,34.6,29.61,SSW,202,21.0,22.0,25,0.00,,,0.00,Wunderground v.1.15,2013-05-16 12:14:00,
2013-05-16 05:20:00,71.9,34.1,29.62,SSW,203,19.0,22.0,25,0.00,,,0.00,Wunderground v.1.15,2013-05-16 12:20:00,
2013-05-16 05:26:00,71.6,34.9,29.62,SSW,196,19.0,24.0,26,0.00,,,0.00,Wunderground v.1.15,2013-05-16 12:26:00,
2013-05-16 05:32:00,71.3,33.6,29.62,SSW,196,18.0,19.0,25,0.00,,,0.00,Wunderground v.1.15,2013-05-16 12:32:00,
2013-05-16 05:38:00,71.3,33.6,29.62,SW,224,18.0,19.0,25,0.00,,,0.00,Wunderground v.1.15,2013-05-16 12:38:00,
2013-05-16 05:44:00,70.8,34.2,29.62,SSW,194,20.0,25.0,26,0.00,,,0.00,Wunderground v.1.15,2013-05-16 12:44:00,
2013-05-16 05:50:00,70.5,33.9,29.62,SSW,202,23.0,23.0,26,0.00,,,0.00,Wunderground v.1.15,2013-05-16 12:50:00,
2013-05-16 05:56:00,70.4,33.9,29.62,South,184,26.0,28.0,26,0.00,,,0.00,Wunderground v.1.15,2013-05-16 12:56:00,
2013-05-16 06:02:00,70.2,33.7,29.63,SW,227,21.0,24.0,26,0.00,,,0.00,Wunderground v.1.15,2013-05-16 13:02:00,
2013-05-16 06:08:00,70.2,33.7,29.63,SSW,211,16.0,24.0,26,0.00,,,0.00,Wunderground v.1.15,2013-05-16 13:08:00,
2013-05-16 06:14:00,70.1,33.6,29.64,SSW,213,15.0,21.0,26,0.00,,,0.00,Wunderground v.1.15,2013-05-16 13:14:00,
2013-05-16 06:20:00,70.4,32.9,29.64,SW,215,16.0,18.0,25,0.00,,,0.00,Wunderground v.1.15,2013-05-16 13:20:00,
2013-05-16 06:26:00,70.7,34.1,29.64,SSW,198,16.0,25.0,26,0.00,,,0.00,Wunderground v.1.15,2013-05-16 13:26:00,
2013-05-16 06:32:00,70.9,34.3,29.64,SW,221,18.0,18.0,26,0.00,,,0.00,Wunderground v.1.15,2013-05-16 13:32:00,
2013-05-16 06:38:00,71.0,34.4,29.64,SW,228,18.0,18.0,26,0.00,,,0.00,Wunderground v.1.15,2013-05-16 13:38:00,
2013-05-16 06:44:00,71.3,34.6,29.64,SSW,196,16.0,23.0,26,0.00,,,0.00,Wunderground v.1.15,2013-05-16 13:44:00,
2013-05-16 06:50:00,71.3,34.6,29.65,SW,218,16.0,16.0,26,0.00,,,0.00,Wunderground v.1.15,2013-05-16 13:50:00,
2013-05-16 06:56:00,71.3,34.6,29.65,SSW,208,14.0,18.0,26,0.00,,,0.00,Wunderground v.1.15,2013-05-16 13:56:00,
2013-05-16 07:02:00,71.3,33.6,29.65,SSW,213,14.0,18.0,25,0.00,,,0.00,Wunderground v.1.15,2013-05-16 14:02:00,
2013-05-16 07:08:00,71.5,33.8,29.65,SW,216,15.0,18.0,25,0.00,,,0.00,Wunderground v.1.15,2013-05-16 14:08:00,
2013-05-16 07:14:00,71.5,33.8,29.65,SSW,213,15.0,15.0,25,0.00,,,0.00,Wunderground v.1.15,2013-05-16 14:14:00,
2013-05-16 07:20:00,71.5,33.8,29.65,SSW,200,13.0,18.0,25,0.00,,,0.00,Wunderground v.1.15,2013-05-16 14:20:00,
2013-05-16 07:26:00,71.6,33.9,29.65,South,188,14.0,18.0,25,0.00,,,0.00,Wunderground v.1.15,2013-05-16 14:26:00,
2013-05-16 07:32:00,71.8,33.0,29.65,SW,228,15.0,15.0,24,0.00,,,0.00,Wunderground v.1.15,2013-05-16 14:32:00,
2013-05-16 07:38:00,71.9,34.1,29.65,SSW,206,15.0,16.0,25,0.00,,,0.00,Wunderground v.1.15,2013-05-16 14:38:00,
2013-05-16 07:44:00,72.1,34.3,29.65,SSW,194,16.0,23.0,25,0.00,,,0.00,Wunderground v.1.15,2013-05-16 14:44:00,
2013-05-16 07:50:00,72.3,34.5,29.65,SSW,213,16.0,16.0,25,0.00,,,0.00,Wunderground v.1.15,2013-05-16 14:50:00,
2013-05-16 07:56:00,72.6,34.7,29.65,SSW,209,16.0,23.0,25,0.00,,,0.00,Wunderground v.1.15,2013-05-16 14:56:00,
2013-05-16 08:02:00,73.1,35.2,29.65,SSW,192,17.0,21.0,25,0.00,,,0.00,Wunderground v.1.15,2013-05-16 15:02:00,
2013-05-16 08:08:00,73.7,34.6,29.65,SSW,195,18.0,21.0,24,0.00,,,0.00,Wunderground v.1.15,2013-05-16 15:08:00,
2013-05-16 08:14:00,74.4,34.2,29.65,South,184,20.0,20.0,23,0.00,,,0.00,Wunderground v.1.15,2013-05-16 15:14:00,
2013-05-16 08:20:00,75.0,34.7,29.65,SSW,208,19.0,19.0,23,0.00,,,0.00,Wunderground v.1.15,2013-05-16 15:20:00,
2013-05-16 08:26:00,75.0,34.7,29.65,South,182,17.0,21.0,23,0.00,,,0.00,Wunderground v.1.15,2013-05-16 15:26:00,
2013-05-16 08:32:00,74.8,34.5,29.65,SSW,194,20.0,20.0,23,0.00,,,0.00,Wunderground v.1.15,2013-05-16 15:32:00,
2013-05-16 08:38:00,75.5,35.1,29.65,SSW,195,20.0,22.0,23,0.00,,,0.00,Wunderground v.1.15,2013-05-16 15:38:00,
2013-05-16 08:44:00,76.0,35.5,29.65,South,185,21.0,22.0,23,0.00,,,0.00,Wunderground v.1.15,2013-05-16 15:44:00,
2013-05-16 08:50:00,76.7,36.1,29.65,South,188,22.0,24.0,23,0.00,,,0.00,Wunderground v.1.15,2013-05-16 15:50:00,
2013-05-16 08:56:00,77.3,35.5,29.65,SSW,198,21.0,24.0,22,0.00,,,0.00,Wunderground v.1.15,2013-05-16 15:56:00,
2013-05-16 09:02:00,77.7,34.6,29.65,SSW,198,21.0,21.0,21,0.00,,,0.00,Wunderground v.1.15,2013-05-16 16:02:00,
2013-05-16 09:08:00,78.1,35.0,29.65,South,189,19.0,21.0,21,0.00,,,0.00,Wunderground v.1.15,2013-05-16 16:08:00,
2013-05-16 09:14:00,78.5,35.3,29.66,SSW,209,17.0,20.0,21,0.00,,,0.00,Wunderground v.1.15,2013-05-16 16:14:00,
2013-05-16 09:20:00,79.1,35.8,29.66,South,184,16.0,18.0,21,0.00,,,0.00,Wunderground v.1.15,2013-05-16 16:20:00,
2013-05-16 09:26:00,80.5,35.7,29.66,SSW,196,14.0,18.0,20,0.00,,,0.00,Wunderground v.1.15,2013-05-16 16:26:00,
2013-05-16 09:32:00,81.2,33.6,29.65,SSW,200,13.0,16.0,18,0.00,,,0.00,Wunderground v.1.15,2013-05-16 16:32:00,
2013-05-16 09:38:00,81.6,34.0,29.65,SSW,204,13.0,16.0,18,0.00,,,0.00,Wunderground v.1.15,2013-05-16 16:38:00,
2013-05-16 09:44:00,82.6,34.8,29.65,South,187,13.0,14.0,18,0.00,,,0.00,Wunderground v.1.15,2013-05-16 16:44:00,
2013-05-16 09:50:00,84.0,33.0,29.65,SW,215,12.0,12.0,16,0.00,,,0.00,Wunderground v.1.15,2013-05-16 16:50:00,
2013-05-16 09:56:00,85.1,33.8,29.65,SW,218,11.0,12.0,16,0.00,,,0.00,Wunderground v.1.15,2013-05-16 16:56:00,
2013-05-16 10:02:00,85.6,34.2,29.64,SW,215,13.0,19.0,16,0.00,,,0.00,Wunderground v.1.15,2013-05-16 17:02:00,
2013-05-16 10:08:00,85.1,33.8,29.64,SSW,209,17.0,23.0,16,0.00,,,0.00,Wunderground v.1.15,2013-05-16 17:08:00,
2013-05-16 10:14:00,85.4,35.6,29.64,SW,219,16.0,21.0,17,0.00,,,0.00,Wunderground v.1.15,2013-05-16 17:14:00,
2013-05-16 10:20:00,86.0,36.1,29.64,SSW,213,13.0,13.0,17,0.00,,,0.00,Wunderground v.1.15,2013-05-16 17:20:00,
2013-05-16 10:26:00,86.6,35.1,29.64,SW,236,13.0,15.0,16,0.00,,,0.00,Wunderground v.1.15,2013-05-16 17:26:00,
2013-05-16 10:32:00,87.1,35.5,29.64,SW,222,14.0,16.0,16,0.00,,,0.00,Wunderground v.1.15,2013-05-16 17:32:00,
2013-05-16 10:38:00,87.9,36.1,29.63,SW,235,14.0,19.0,16,0.00,,,0.00,Wunderground v.1.15,2013-05-16 17:38:00,
2013-05-16 10:44:00,88.7,36.7,29.64,West,277,14.0,16.0,16,0.00,,,0.00,Wunderground v.1.15,2013-05-16 17:44:00,
2013-05-16 10:50:00,88.8,35.2,29.63,SW,230,13.0,16.0,15,0.00,,,0.00,Wunderground v.1.15,2013-05-16 17:50:00,
2013-05-16 10:56:00,87.9,36.1,29.64,SW,236,14.0,16.0,16,0.00,,,0.00,Wunderground v.1.15,2013-05-16 17:56:00,
2013-05-16 11:02:00,88.1,36.3,29.64,SW,222,12.0,13.0,16,0.00,,,0.00,Wunderground v.1.15,2013-05-16 18:02:00,
2013-05-16 11:08:00,88.9,36.9,29.63,WSW,255,10.0,13.0,16,0.00,,,0.00,Wunderground v.1.15,2013-05-16 18:08:00,
2013-05-16 11:14:00,89.6,35.8,29.63,SW,225,10.0,12.0,15,0.00,,,0.00,Wunderground v.1.15,2013-05-16 18:14:00,
2013-05-16 11:20:00,89.6,35.8,29.63,SSW,194,10.0,11.0,15,0.00,,,0.00,Wunderground v.1.15,2013-05-16 18:20:00,
2013-05-16 11:26:00,90.0,36.1,29.63,West,263,10.0,16.0,15,0.00,,,0.00,Wunderground v.1.15,2013-05-16 18:26:00,
2013-05-16 11:32:00,90.7,36.7,29.63,WNW,294,11.0,15.0,15,0.00,,,0.00,Wunderground v.1.15,2013-05-16 18:32:00,
2013-05-16 11:38:00,91.1,37.0,29.63,WSW,255,11.0,15.0,15,0.00,,,0.00,Wunderground v.1.15,2013-05-16 18:38:00,
2013-05-16 11:44:00,91.8,37.6,29.62,West,271,9.0,12.0,15,0.00,,,0.00,Wunderground v.1.15,2013-05-16 18:44:00,
2013-05-16 11:50:00,91.8,37.6,29.62,WSW,257,9.0,14.0,15,0.00,,,0.00,Wunderground v.1.15,2013-05-16 18:50:00,
2013-05-16 11:56:00,92.2,37.9,29.62,WSW,246,9.0,16.0,15,0.00,,,0.00,Wunderground v.1.15,2013-05-16 18:56:00,
2013-05-16 12:02:00,92.5,36.4,29.62,SW,236,9.0,16.0,14,0.00,,,0.00,Wunderground v.1.15,2013-05-16 19:02:00,
2013-05-16 12:08:00,92.3,38.0,29.62,SW,226,10.0,16.0,15,0.00,,,0.00,Wunderground v.1.15,2013-05-16 19:08:00,
2013-05-16 12:14:00,92.5,38.1,29.62,SW,227,12.0,15.0,15,0.00,,,0.00,Wunderground v.1.15,2013-05-16 19:14:00,
2013-05-16 12:20:00,92.0,37.7,29.62,WSW,248,12.0,15.0,15,0.00,,,0.00,Wunderground v.1.15,2013-05-16 19:20:00,
2013-05-16 12:26:00,91.9,37.6,29.62,West,263,13.0,15.0,15,0.00,,,0.00,Wunderground v.1.15,2013-05-16 19:26:00,
2013-05-16 12:32:00,92.6,38.2,29.61,WSW,246,13.0,16.0,15,0.00,,,0.00,Wunderground v.1.15,2013-05-16 19:32:00,
2013-05-16 12:38:00,92.7,38.3,29.61,WSW,237,13.0,17.0,15,0.00,,,0.00,Wunderground v.1.15,2013-05-16 19:38:00,
2013-05-16 12:44:00,92.2,37.9,29.61,SW,215,13.0,19.0,15,0.00,,,0.00,Wunderground v.1.15,2013-05-16 19:44:00,
2013-05-16 12:50:00,92.1,37.8,29.61,WSW,238,15.0,15.0,15,0.00,,,0.00,Wunderground v.1.15,2013-05-16 19:50:00,
2013-05-16 12:56:00,91.8,37.6,29.61,WSW,246,16.0,16.0,15,0.00,,,0.00,Wunderground v.1.15,2013-05-16 19:56:00,
2013-05-16 13:02:00,92.3,39.6,29.61,SSW,211,15.0,17.0,16,0.00,,,0.00,Wunderground v.1.15,2013-05-16 20:02:00,
2013-05-16 13:08:00,92.3,38.0,29.60,WSW,248,16.0,17.0,15,0.00,,,0.00,Wunderground v.1.15,2013-05-16 20:08:00,
2013-05-16 13:14:00,92.5,38.1,29.61,NW,305,16.0,20.0,15,0.00,,,0.00,Wunderground v.1.15,2013-05-16 20:14:00,
2013-05-16 13:20:00,92.8,36.6,29.60,SW,221,16.0,18.0,14,0.00,,,0.00,Wunderground v.1.15,2013-05-16 20:20:00,
2013-05-16 13:26:00,93.3,37.0,29.60,SW,234,15.0,28.0,14,0.00,,,0.00,Wunderground v.1.15,2013-05-16 20:26:00,
2013-05-16 13:32:00,92.3,36.2,29.60,West,261,17.0,19.0,14,0.00,,,0.00,Wunderground v.1.15,2013-05-16 20:32:00,
2013-05-16 13:38:00,92.4,36.3,29.60,West,277,18.0,25.0,14,0.00,,,0.00,Wunderground v.1.15,2013-05-16 20:38:00,
2013-05-16 13:44:00,92.6,36.4,29.60,WSW,242,17.0,22.0,14,0.00,,,0.00,Wunderground v.1.15,2013-05-16 20:44:00,
2013-05-16 13:50:00,91.6,35.7,29.60,WSW,244,17.0,17.0,14,0.00,,,0.00,Wunderground v.1.15,2013-05-16 20:50:00,
2013-05-16 13:56:00,91.3,35.4,29.60,WSW,249,16.0,19.0,14,0.00,,,0.00,Wunderground v.1.15,2013-05-16 20:56:00,
2013-05-16 14:02:00,90.6,34.9,29.61,WSW,247,16.0,24.0,14,0.00,,,0.00,Wunderground v.1.15,2013-05-16 21:02:00,
2013-05-16 14:08:00,90.5,34.8,29.60,WSW,248,16.0,24.0,14,0.00,,,0.00,Wunderground v.1.15,2013-05-16 21:08:00,
2013-05-16 14:14:00,89.8,36.0,29.60,SW,229,17.0,20.0,15,0.00,,,0.00,Wunderground v.1.15,2013-05-16 21:14:00,
2013-05-16 14:20:00,89.2,35.5,29.60,WSW,246,17.0,17.0,15,0.00,,,0.00,Wunderground v.1.15,2013-05-16 21:20:00,
2013-05-16 14:26:00,89.2,35.5,29.60,West,261,17.0,22.0,15,0.00,,,0.00,Wunderground v.1.15,2013-05-16 21:26:00,
2013-05-16 14:32:00,88.6,35.0,29.60,West,268,16.0,23.0,15,0.00,,,0.00,Wunderground v.1.15,2013-05-16 21:32:00,
2013-05-16 14:38:00,88.5,36.6,29.60,West,269,15.0,23.0,16,0.00,,,0.00,Wunderground v.1.15,2013-05-16 21:38:00,
2013-05-16 14:44:00,89.0,35.3,29.60,West,259,17.0,22.0,15,0.00,,,0.00,Wunderground v.1.15,2013-05-16 21:44:00,
2013-05-16 14:50:00,88.1,34.6,29.59,WSW,240,17.0,22.0,15,0.00,,,0.00,Wunderground v.1.15,2013-05-16 21:50:00,
2013-05-16 14:56:00,87.3,35.6,29.59,West,264,17.0,22.0,16,0.00,,,0.00,Wunderground v.1.15,2013-05-16 21:56:00,
2013-05-16 15:02:00,87.1,35.5,29.59,West,275,15.0,22.0,16,0.00,,,0.00,Wunderground v.1.15,2013-05-16 22:02:00,
2013-05-16 15:08:00,87.1,35.5,29.59,West,279,15.0,23.0,16,0.00,,,0.00,Wunderground v.1.15,2013-05-16 22:08:00,
2013-05-16 15:14:00,86.8,36.7,29.59,West,271,16.0,17.0,17,0.00,,,0.00,Wunderground v.1.15,2013-05-16 22:14:00,
2013-05-16 15:20:00,86.5,36.5,29.59,WSW,238,14.0,14.0,17,0.00,,,0.00,Wunderground v.1.15,2013-05-16 22:20:00,
2013-05-16 15:26:00,85.9,36.0,29.60,West,271,13.0,14.0,17,0.00,,,0.00,Wunderground v.1.15,2013-05-16 22:26:00,
2013-05-16 15:32:00,85.4,35.6,29.59,SW,233,14.0,19.0,17,0.00,,,0.00,Wunderground v.1.15,2013-05-16 22:32:00,
2013-05-16 15:38:00,85.0,35.3,29.59,SW,234,16.0,19.0,17,0.00,,,0.00,Wunderground v.1.15,2013-05-16 22:38:00,
2013-05-16 15:44:00,84.6,36.4,29.59,SW,232,18.0,32.0,18,0.00,,,0.00,Wunderground v.1.15,2013-05-16 22:44:00,
2013-05-16 15:50:00,84.0,35.9,29.59,SW,232,21.0,21.0,18,0.00,,,0.00,Wunderground v.1.15,2013-05-16 22:50:00,
2013-05-16 15:56:00,83.9,37.2,29.58,WSW,250,22.0,24.0,19,0.00,,,0.00,Wunderground v.1.15,2013-05-16 22:56:00,
2013-05-16 16:02:00,84.1,37.4,29.58,WSW,257,21.0,21.0,19,0.00,,,0.00,Wunderground v.1.15,2013-05-16 23:02:00,
2013-05-16 16:08:00,83.7,37.0,29.58,WSW,238,23.0,28.0,19,0.00,,,0.00,Wunderground v.1.15,2013-05-16 23:08:00,
2013-05-16 16:14:00,83.6,37.0,29.58,SW,214,23.0,27.0,19,0.00,,,0.00,Wunderground v.1.15,2013-05-16 23:14:00,
2013-05-16 16:20:00,84.8,37.9,29.58,SW,234,22.0,23.0,19,0.00,,,0.00,Wunderground v.1.15,2013-05-16 23:20:00,
2013-05-16 16:26:00,86.1,37.6,29.59,West,262,19.0,23.0,18,0.00,,,0.00,Wunderground v.1.15,2013-05-16 23:26:00,
2013-05-16 16:32:00,86.3,39.2,29.59,WSW,252,19.0,19.0,19,0.00,,,0.00,Wunderground v.1.15,2013-05-16 23:32:00,
2013-05-16 16:38:00,85.6,38.6,29.59,SW,225,20.0,25.0,19,0.00,,,0.00,Wunderground v.1.15,2013-05-16 23:38:00,
2013-05-16 16:44:00,84.9,39.3,29.60,West,261,21.0,25.0,20,0.00,,,0.00,Wunderground v.1.15,2013-05-16 23:44:00,
2013-05-16 16:50:00,84.9,38.0,29.60,WSW,247,18.0,24.0,19,0.00,,,0.00,Wunderground v.1.15,2013-05-16 23:50:00,
2013-05-16 16:56:00,83.7,38.4,29.60,SW,225,23.0,30.0,20,0.00,,,0.00,Wunderground v.1.15,2013-05-16 23:56:00,
2013-05-16 17:02:00,82.4,38.5,29.60,SW,219,25.0,28.0,21,0.00,,,0.00,Wunderground v.1.15,2013-05-17 00:02:00,
2013-05-16 17:08:00,81.3,37.6,29.61,SW,234,27.0,31.0,21,0.00,,,0.00,Wunderground v.1.15,2013-05-17 00:08:00,
2013-05-16 17:14:00,79.9,37.6,29.60,SW,218,28.0,30.0,22,0.00,,,0.00,Wunderground v.1.15,2013-05-17 00:14:00,
2013-05-16 17:20:00,78.4,37.5,29.60,SW,236,27.0,27.0,23,0.00,,,0.00,Wunderground v.1.15,2013-05-17 00:20:00,
2013-05-16 17:26:00,77.6,37.9,29.60,WSW,238,24.0,27.0,24,0.00,,,0.00,Wunderground v.1.15,2013-05-17 00:26:00,
2013-05-16 17:32:00,77.2,37.6,29.60,WSW,237,22.0,26.0,24,0.00,,,0.00,Wunderground v.1.15,2013-05-17 00:32:00,
2013-05-16 17:38:00,76.7,38.2,29.60,SW,227,22.0,27.0,25,0.00,,,0.00,Wunderground v.1.15,2013-05-17 00:38:00,
2013-05-16 17:44:00,76.3,37.9,29.60,WSW,252,21.0,24.0,25,0.00,,,0.00,Wunderground v.1.15,2013-05-17 00:44:00,
2013-05-16 17:50:00,76.0,37.6,29.60,WSW,257,21.0,22.0,25,0.00,,,0.00,Wunderground v.1.15,2013-05-17 00:50:00,
2013-05-16 17:56:00,75.7,37.4,29.60,SW,223,23.0,29.0,25,0.00,,,0.00,Wunderground v.1.15,2013-05-17 00:56:00,
2013-05-16 18:02:00,75.3,38.0,29.61,WSW,240,23.0,29.0,26,0.00,,,0.00,Wunderground v.1.15,2013-05-17 01:02:00,
2013-05-16 18:08:00,74.8,37.6,29.61,SW,232,22.0,29.0,26,0.00,,,0.00,Wunderground v.1.15,2013-05-17 01:08:00,
2013-05-16 18:14:00,74.4,37.3,29.62,SW,232,22.0,26.0,26,0.00,,,0.00,Wunderground v.1.15,2013-05-17 01:14:00,
2013-05-16 18:20:00,74.1,37.0,29.61,WSW,242,21.0,21.0,26,0.00,,,0.00,Wunderground v.1.15,2013-05-17 01:20:00,
2013-05-16 18:26:00,74.0,36.9,29.62,SW,225,21.0,24.0,26,0.00,,,0.00,Wunderground v.1.15,2013-05-17 01:26:00,
2013-05-16 18:32:00,73.8,37.7,29.63,WSW,242,21.0,25.0,27,0.00,,,0.00,Wunderground v.1.15,2013-05-17 01:32:00,
2013-05-16 18:38:00,73.7,36.7,29.63,WSW,256,21.0,31.0,26,0.00,,,0.00,Wunderground v.1.15,2013-05-17 01:38:00,
2013-05-16 18:44:00,73.6,37.5,29.62,SW,235,20.0,28.0,27,0.00,,,0.00,Wunderground v.1.15,2013-05-17 01:44:00,
2013-05-16 18:50:00,73.3,37.3,29.63,WSW,245,18.0,18.0,27,0.00,,,0.00,Wunderground v.1.15,2013-05-17 01:50:00,
2013-05-16 18:56:00,73.0,38.0,29.64,WSW,250,16.0,21.0,28,0.00,,,0.00,Wunderground v.1.15,2013-05-17 01:56:00,
2013-05-16 19:02:00,72.9,37.9,29.64,SW,232,13.0,14.0,28,0.00,,,0.00,Wunderground v.1.15,2013-05-17 02:02:00,
2013-05-16 19:08:00,72.7,37.7,29.65,SW,223,13.0,14.0,28,0.00,,,0.00,Wunderground v.1.15,2013-05-17 02:08:00,
2013-05-16 19:14:00,72.6,37.6,29.64,WSW,242,14.0,18.0,28,0.00,,,0.00,Wunderground v.1.15,2013-05-17 02:14:00,
2013-05-16 19:20:00,72.5,38.4,29.64,WSW,246,15.0,15.0,29,0.00,,,0.00,Wunderground v.1.15,2013-05-17 02:20:00,
2013-05-16 19:26:00,72.2,39.0,29.64,West,263,14.0,20.0,30,0.00,,,0.00,Wunderground v.1.15,2013-05-17 02:26:00,
2013-05-16 19:32:00,71.9,38.8,29.64,WSW,243,15.0,20.0,30,0.00,,,0.00,Wunderground v.1.15,2013-05-17 02:32:00,
2013-05-16 19:38:00,71.7,38.6,29.64,SW,218,16.0,24.0,30,0.00,,,0.00,Wunderground v.1.15,2013-05-17 02:38:00,
2013-05-16 19:44:00,71.5,39.3,29.64,WSW,238,17.0,20.0,31,0.00,,,0.00,Wunderground v.1.15,2013-05-17 02:44:00,
2013-05-16 19:50:00,71.3,39.1,29.64,SW,233,17.0,21.0,31,0.00,,,0.00,Wunderground v.1.15,2013-05-17 02:50:00,
2013-05-16 19:56:00,71.0,39.6,29.64,SW,226,18.0,21.0,32,0.00,,,0.00,Wunderground v.1.15,2013-05-17 02:56:00,
2013-05-16 20:02:00,70.7,38.6,29.64,WSW,246,18.0,18.0,31,0.00,,,0.00,Wunderground v.1.15,2013-05-17 03:02:00,
2013-05-16 20:08:00,70.4,39.1,29.64,SW,225,18.0,23.0,32,0.00,,,0.00,Wunderground v.1.15,2013-05-17 03:08:00,
2013-05-16 20:14:00,70.1,38.9,29.64,SW,221,15.0,20.0,32,0.00,,,0.00,Wunderground v.1.15,2013-05-17 03:14:00,
2013-05-16 22:10:00,67.7,39.0,29.64,WSW,244,14.0,31.0,35,0.00,,,0.00,Wunderground v.1.15,2013-05-17 05:10:00,
2013-05-16 22:12:00,67.7,39.0,29.64,SW,223,15.0,31.0,35,0.00,,,0.00,Wunderground v.1.15,2013-05-17 05:12:00,
2013-05-16 22:14:00,67.7,39.0,29.64,WSW,241,15.0,31.0,35,0.00,,,0.00,Wunderground v.1.15,2013-05-17 05:14:00,
2013-05-16 22:16:00,67.7,39.0,29.64,WSW,252,15.0,31.0,35,0.00,,,0.00,Wunderground v.1.15,2013-05-17 05:16:00,
2013-05-16 22:22:00,67.7,39.0,29.63,WSW,238,16.0,17.0,35,0.00,,,0.00,Wunderground v.1.15,2013-05-17 05:22:00,
2013-05-16 22:26:00,67.7,39.0,29.63,WSW,239,17.0,17.0,35,0.00,,,0.00,Wunderground v.1.15,2013-05-17 05:26:00,
2013-05-16 22:32:00,67.7,39.0,29.63,West,263,18.0,22.0,35,0.00,,,0.00,Wunderground v.1.15,2013-05-17 05:32:00,
2013-05-16 22:38:00,67.7,39.0,29.63,WSW,240,19.0,22.0,35,0.00,,,0.00,Wunderground v.1.15,2013-05-17 05:38:00,
2013-05-16 22:44:00,67.6,39.0,29.64,WNW,297,17.0,18.0,35,0.00,,,0.00,Wunderground v.1.15,2013-05-17 05:44:00,
2013-05-16 22:50:00,67.4,39.5,29.64,West,260,16.0,16.0,36,0.00,,,0.00,Wunderground v.1.15,2013-05-17 05:50:00,
2013-05-16 22:56:00,67.2,39.3,29.65,SW,230,15.0,16.0,36,0.00,,,0.00,Wunderground v.1.15,2013-05-17 05:56:00,
2013-05-16 23:02:00,67.0,39.1,29.65,SW,220,15.0,15.0,36,0.00,,,0.00,Wunderground v.1.15,2013-05-17 06:02:00,
2013-05-16 23:08:00,66.7,39.6,29.65,SSW,202,15.0,16.0,37,0.00,,,0.00,Wunderground v.1.15,2013-05-17 06:08:00,
2013-05-16 23:14:00,66.5,39.4,29.66,SSW,194,14.0,15.0,37,0.00,,,0.00,Wunderground v.1.15,2013-05-17 06:14:00,
2013-05-16 23:20:00,66.4,39.3,29.65,SSW,199,13.0,13.0,37,0.00,,,0.00,Wunderground v.1.15,2013-05-17 06:20:00,
2013-05-16 23:26:00,66.2,39.1,29.65,SSW,205,13.0,13.0,37,0.00,,,0.00,Wunderground v.1.15,2013-05-17 06:26:00,
2013-05-16 23:32:00,66.1,39.1,29.65,SW,222,14.0,14.0,37,0.00,,,0.00,Wunderground v.1.15,2013-05-17 06:32:00,
2013-05-16 23:38:00,66.1,39.1,29.65,SW,215,16.0,21.0,37,0.00,,,0.00,Wunderground v.1.15,2013-05-17 06:38:00,
2013-05-16 23:44:00,66.1,39.1,29.65,SW,215,16.0,17.0,37,0.00,,,0.00,Wunderground v.1.15,2013-05-17 06:44:00,
2013-05-16 23:50:00,66.1,39.1,29.65,SW,221,15.0,17.0,37,0.00,,,0.00,Wunderground v.1.15,2013-05-17 06:50:00,
2013-05-16 23:56:00,66.1,39.1,29.64,South,188,14.0,18.0,37,0.00,,,0.00,Wunderground v.1.15,2013-05-17 06:56:00,